Regional Weather Roundup
Issued by NWS Sioux Falls, SD

Home | Current Version | Previous Version | Text Only | Print | Product List | Glossary Off
Versions: 1 2 3 4 5 6 7 8 9 10 11 12 13 14 15 16 17 18 19 20 21 22 23 24 25 26 27 28 29 30 31 32 33 34 35 36 37 38 39 40 41 42 43 44 45 46 47 48 49 50

000
ASUS43 KFSD 252202
RWRFSD

WEATHER ROUNDUP FOR SE SOUTH DAKOTA/SW MINNESOTA/NW IOWA
NATIONAL WEATHER SERVICE SIOUX FALLS SD
500 PM CDT MON JUL 25 2016

NOTE: "FAIR" INDICATES FEW OR NO CLOUDS BELOW 12,000 FEET WITH NO
SIGNIFICANT WEATHER AND OR OBSTRUCTIONS TO VISIBILITY.


SDZ038>040-050-052>070-252300-
SOUTHEAST SOUTH DAKOTA

CITY           SKY/WX    TMP DP  RH WIND       PRES   REMARKS
BROOKINGS      SUNNY     84  65  52 S14       30.06F
CHAMBERLAIN    SUNNY     93  52  24 S16G22    30.02S
HURON          SUNNY     90  55  30 S16G24    30.00F
MADISON        FAIR      82  63  51 SW12G18   30.07F
MITCHELL       SUNNY     90  56  31 S14G21    30.03F
SIOUX FALLS    SUNNY     84  62  47 S7        30.07F
WINNER         FAIR      95  44  17 S21G28    30.03F
YANKTON        SUNNY     88  59  37 SE9       30.03F
$$

MNZ071-072-080-081-089-090-097-098-252300-
SOUTHWEST MINNESOTA

CITY           SKY/WX    TMP DP  RH WIND       PRES   REMARKS
FAIRMONT       SUNNY     84  64  51 W8        30.06F
JACKSON        SUNNY     84  59  42 W5        30.09F
LUVERNE        SUNNY     82  59  44 SW9       30.09S
MARSHALL       SUNNY     86  65  49 SW9       30.05F
MONTEVIDEO     SUNNY     88  66  48 W9        30.05F
REDWOOD FALLS  MOSUNNY   86  63  45 W8        30.04F
WINDOM         SUNNY     84  63  48 W6        30.08F
WORTHINGTON    SUNNY     83  64  52 MISG      30.09F
$$

IAZ001>003-012>014-020>022-031-032-NEZ013-014-SDZ071-252300-
NORTHWEST IOWA

CITY           SKY/WX    TMP DP  RH WIND       PRES   REMARKS
CHEROKEE       SUNNY     86  62  45 S5        30.08S
DENISON        SUNNY     84  64  51 CALM      30.05F
ESTHERVILLE    SUNNY     83  62  49 W3        30.08F
LE MARS        SUNNY     86  64  48 S3        30.08F
SHELDON        SUNNY     84  64  51 SW6       30.07F
SIOUX CITY     SUNNY     88  61  40 SE6       30.06F
SPENCER        SUNNY     85  59  41 SW5       30.08F
STORM LAKE     SUNNY     84  61  45 CALM      30.09F
$$

ABBREVIATIONS USED IN REMARKS
   TC - TEMPERATURE IN CELSIUS
  WCI - WIND CHILL INDEX
   HX - HEAT INDEX
  VSB - VISIBILITY





USA.gov is the U.S. government's official web portal to all federal, state and local government web resources and services.